This is the latest recevied weather packets stored in our database for station/object SR8WXL-13. If no packets are shown the sender has not sent any weather packets the latest 10 day(s).
| Time | Temp. | Humidity | Pressure | Rain* | Wind** | Luminosity | Snow |
|---|---|---|---|---|---|---|---|
| 1787571315 | 21.11° C | 55% | 1035.6 hPa | 0 mm | - | - | - |
| 1787570465 | 21.11° C | 51% | 1035.5 hPa | 0 mm | - | - | - |
| 1787569740 | 21.11° C | 53% | 1035.6 hPa | 0 mm | - | - | - |
| 1787568839 | 21.11° C | 52% | 1035.8 hPa | 0 mm | - | - | - |
| 1787568020 | 21.11° C | 53% | 1035.8 hPa | 0 mm | - | - | - |
| 1787567151 | 22.22° C | 52% | 1035.6 hPa | 0 mm | - | - | - |
| 1787566344 | 21.11° C | 50% | 1035.7 hPa | 0 mm | - | - | - |
| 1787565525 | 21.11° C | 54% | 1035.9 hPa | 0 mm | - | - | - |
| 1787564774 | 21.11° C | 53% | 1035.9 hPa | 0 mm | - | - | - |
| 1787564041 | 20° C | 52% | 1035.9 hPa | 0 mm | - | - | - |
| 1787563196 | 21.11° C | 52% | 1036.2 hPa | 0 mm | - | - | - |
| 1787562460 | 20° C | 56% | 1036 hPa | 0 mm | - | - | - |
| 1787561660 | 20° C | 58% | 1036.1 hPa | 0 mm | - | - | - |
| 1787560760 | 20° C | 56% | 1036.4 hPa | 0 mm | - | - | - |
| 1787559939 | 20° C | 53% | 1036.4 hPa | 0 mm | - | - | - |
| 1787559120 | 20° C | 52% | 1036.2 hPa | 0 mm | - | - | - |
| 1787558389 | 18.89° C | 56% | 1036.3 hPa | 0 mm | - | - | - |
| 1787557574 | 18.89° C | 60% | 1036.5 hPa | 0 mm | - | - | - |
| 1787556824 | 17.78° C | 64% | 1036.3 hPa | 0 mm | - | - | - |
| 1787556100 | 17.22° C | 66% | 1036.4 hPa | 0 mm | - | - | - |
| 1787555274 | 17.22° C | 66% | 1036.2 hPa | 0 mm | - | - | - |
| 1787554445 | 16.11° C | 68% | 1036.4 hPa | 0 mm | - | - | - |
| 1787553659 | 17.22° C | 69% | 1036.3 hPa | 0 mm | - | - | - |
| 1787552816 | 16.11° C | 71% | 1036.3 hPa | 0 mm | - | - | - |
| 1787552013 | 15° C | 73% | 1036.4 hPa | 0 mm | - | - | - |
* Rain latest hour (hover to see other rain measurements)
** Current wind speed in m/s (hover to see current wind gust speed)